Home > Time Zones > World Clock > Weather > U.S.A. > Waco > Past weeks

Flag for U.S.A. Weather past 2 weeks in Waco, Texas, U.S.A.

Now
76 °F

Clear.


Feels Like: 76 °F
Forecast: 74 / 94 °F
Wind: 6 mph from North

Location: Waco Regional Airport

Current Time: Jul 29, 2014 at 12:44:11 AM

Latest Report: Jul 28, 2014 at 11:51 PM


Visibility: 10 mi

Pressure: 30.06 "Hg

Humidity: 85%

Dew point: 71 °F

Location of WacoLocation

Historic Weather in Waco — Graph

°F

Waco temperature yesterday

Maximum temperature yesterday: 97 °F (at 1:51 PM)
Minimum temperature yesterday: 76 °F (at 6:51 AM)
Average temperature yesterday: 84 °F

Past Weeks' High & Low Weather Summary

 TemperatureHumidityPressure
High99 °F (Jul 14, 3:51 PM)100% (Jul 18, 2:02 AM)30.11 "Hg (Jul 18, 2:02 AM)
Low65 °F (Jul 19, 6:51 AM)30% (Jul 14, 3:51 PM)29.81 "Hg (Jul 17, 5:51 PM)
Average82 °F67%29.97 "Hg
* Reported Jul 13 10:51 PM — Jul 28 10:51 PM, Waco, Weather by CustomWeather, © 2014

Note: Actual official high and low records may vary slightly from our data, if they occured in-between our weather recording intervals... More about our weather records

Advertising

Waco weather history for previous 24 hours

 ConditionsComfort  
Time TempWeatherWind HumidityBarometerVisibility
10:51 PM
Jul 28
77 °FClear.No wind82%30.06 "Hg10 mi
9:51 PM78 °FClear.No wind79%30.06 "Hg10 mi
8:51 PM79 °FSunny.3 mph74%30.03 "Hg10 mi
7:51 PM81 °FSunny.8 mph69%30.03 "Hg10 mi
6:51 PM83 °FSunny.8 mph68%30.03 "Hg10 mi
5:51 PM82 °FPartly sunny.8 mph67%30.03 "Hg10 mi
4:51 PM83 °FPartly sunny.13 mph65%30.04 "Hg10 mi
3:51 PM97 °FBroken clouds.7 mph37%30.02 "Hg10 mi
2:51 PM97 °FScattered clouds.3 mph39%30.03 "Hg10 mi
1:51 PM97 °FPassing clouds.3 mph40%30.06 "Hg10 mi
12:51 PM95 °FSunny.3 mph43%30.08 "Hg10 mi
11:51 AM95 °FPassing clouds.3 mph41%30.10 "Hg10 mi
10:51 AM90 °FScattered clouds.No wind54%30.11 "Hg10 mi
9:51 AM86 °FSunny.5 mph61%30.09 "Hg10 mi
8:51 AM83 °FSunny.3 mph65%30.08 "Hg10 mi
7:51 AM79 °FSunny.6 mph74%30.06 "Hg10 mi
6:51 AM76 °FClear.10 mph80%30.04 "Hg10 mi
5:51 AM77 °FClear.8 mph79%30.04 "Hg10 mi
4:51 AM77 °FClear.6 mph79%30.03 "Hg10 mi
3:51 AM80 °FClear.8 mph71%30.02 "Hg10 mi
2:51 AM81 °FClear.9 mph72%30.01 "Hg10 mi
1:51 AM83 °FClear.12 mph68%30.01 "Hg10 mi
12:51 AM85 °FClear.13 mph63%30.01 "Hg10 mi
Weather by CustomWeather, © 2014

See weather overviewHow to use our weather pages